カタログに戻る

KHALIFASAT

運用中科学SSO
NORAD 43676·PAYLOAD·🇦🇪 UAE

打ち上げ Oct 29, 2018 から Tanegashima Space Center

Loading…

次のパス (今後24時間)

TLE

最新Source: Space-Track

元期: Sep 14, 2026, 23:09 UTC

1 43676U 18084F   26257.96460294  .00000387  00000-0  34977-4 0  9991
2 43676  98.0836  84.0330 0005431 172.1326 187.9983 15.01554542429243

AllMySatでKHALIFASATをリアルタイム追跡

Download on the App Store